IBS15ZT LEMD-GCXO

Flight info

Callsign IBS15ZT
Flight time N/A
Altitude 31000
Route CCS DCT ELVAR/N0468F390 DCT BAROK UN873 SAMAR
Aircraft A346/H-SDE2E3FGHIJ3J4J5M1RWXY/LB1D1

Departure

Time 2026-05-06 07:26
Airport Adolfo Suárez Madrid–Barajas Airport (LEMD)

Arrival

Time N/A
Airport Tenerife Norte-Ciudad de La Laguna Airport (GCXO)
Time Latitude Longitude Altitude Speed Heading
2026-05-06 06:59 40.49287 -3.56888 1952 ft 0 kts 90°
2026-05-06 07:16 40.49286 -3.56910 1951 ft 4 kts 85°
2026-05-06 07:16 40.49284 -3.56945 1956 ft 4 kts 85°
2026-05-06 07:16 40.49284 -3.56971 1955 ft 4 kts 117°
2026-05-06 07:17 40.49297 -3.56992 1951 ft 4 kts 139°
2026-05-06 07:17 40.49315 -3.57005 1952 ft 4 kts 171°
2026-05-06 07:17 40.49341 -3.57006 1952 ft 4 kts 181°
2026-05-06 07:17 40.49349 -3.57006 1952 ft 0 kts 180°
2026-05-06 07:22 40.49348 -3.57006 1952 ft 1 kts 180°
2026-05-06 07:22 40.49334 -3.57007 1952 ft 3 kts 187°
2026-05-06 07:22 40.49304 -3.57027 1947 ft 7 kts 224°
2026-05-06 07:23 40.49290 -3.57097 1943 ft 8 kts 270°
2026-05-06 07:23 40.49290 -3.57179 1939 ft 9 kts 269°
2026-05-06 07:23 40.49264 -3.57226 1937 ft 12 kts 204°
2026-05-06 07:23 40.49225 -3.57234 1936 ft 4 kts 185°
2026-05-06 07:24 40.49197 -3.57255 1935 ft 6 kts 233°
2026-05-06 07:24 40.49186 -3.57371 1932 ft 11 kts 270°
2026-05-06 07:24 40.49199 -3.57447 1931 ft 7 kts 319°
2026-05-06 07:24 40.49252 -3.57461 1932 ft 9 kts 359°
2026-05-06 07:25 40.49313 -3.57462 1933 ft 26 kts 359°
2026-05-06 07:25 40.49780 -3.57467 1939 ft 105 kts
2026-05-06 07:25 40.50725 -3.57470 1957 ft 165 kts 359°
2026-05-06 07:25 40.52005 -3.57485 2271 ft 191 kts 359°
2026-05-06 07:26 40.53316 -3.57500 3242 ft 186 kts 360°
2026-05-06 07:26 40.54584 -3.57506 4250 ft 180 kts
2026-05-06 07:26 40.55859 -3.57511 4967 ft 191 kts 360°
2026-05-06 07:26 40.57231 -3.57526 5609 ft 204 kts 359°
2026-05-06 07:27 40.58702 -3.57545 6225 ft 219 kts 359°
2026-05-06 07:27 40.60267 -3.57313 6800 ft 235 kts 14°
2026-05-06 07:27 40.61827 -3.56488 7511 ft 246 kts 24°
2026-05-06 07:27 40.63377 -3.55515 8493 ft 247 kts 24°
2026-05-06 07:28 40.65055 -3.54824 9214 ft 261 kts
2026-05-06 07:28 40.66910 -3.54787 9920 ft 274 kts 352°
2026-05-06 07:28 40.70881 -3.55572 11079 ft 307 kts 356°
2026-05-06 07:29 40.73060 -3.55925 11568 ft 325 kts 344°
2026-05-06 07:29 40.75164 -3.57196 12046 ft 343 kts 326°
2026-05-06 07:29 40.76926 -3.59425 12551 ft 360 kts 306°
2026-05-06 07:29 40.78034 -3.62411 13360 ft 367 kts 286°
2026-05-06 07:30 40.78297 -3.65770 14261 ft 372 kts 266°
2026-05-06 07:30 40.77803 -3.69135 15209 ft 374 kts 258°
2026-05-06 07:30 40.77203 -3.72488 16134 ft 375 kts 258°
2026-05-06 07:30 40.76600 -3.75856 17064 ft 378 kts 258°
2026-05-06 07:31 40.75999 -3.79242 17980 ft 380 kts 258°
2026-05-06 07:31 40.75396 -3.82647 18810 ft 382 kts 258°
2026-05-06 07:31 40.74792 -3.86077 19538 ft 386 kts 258°
2026-05-06 07:31 40.74185 -3.89528 20111 ft 393 kts 258°
2026-05-06 07:32 40.73561 -3.93070 20837 ft 397 kts 258°
2026-05-06 07:32 40.72935 -3.96625 21627 ft 399 kts 258°
2026-05-06 07:32 40.72302 -4.00201 22399 ft 401 kts 258°
2026-05-06 07:32 40.71666 -4.03793 23151 ft 404 kts 258°
2026-05-06 07:33 40.71023 -4.07416 23823 ft 407 kts 258°
2026-05-06 07:33 40.70373 -4.11065 24388 ft 410 kts 258°
2026-05-06 07:33 40.69717 -4.14745 24989 ft 413 kts 258°
2026-05-06 07:33 40.69057 -4.18444 25580 ft 416 kts 257°
2026-05-06 07:34 40.68388 -4.22180 26175 ft 419 kts 257°
2026-05-06 07:34 40.67716 -4.25926 26784 ft 420 kts 257°
2026-05-06 07:34 40.67045 -4.29660 27605 ft 416 kts 257°
2026-05-06 07:34 40.66380 -4.33358 28499 ft 412 kts 257°
2026-05-06 07:35 40.65718 -4.37021 29373 ft 409 kts 257°
2026-05-06 07:35 40.65061 -4.40661 30124 ft 408 kts 257°
2026-05-06 07:35 40.64400 -4.44307 30651 ft 410 kts 257°
2026-05-06 07:35 40.63644 -4.47954 30959 ft 413 kts 253°
2026-05-06 07:36 40.61511 -4.55022 31002 ft 417 kts 246°
2026-05-06 07:36 40.58610 -4.61603 31008 ft 421 kts 238°
2026-05-06 07:37 40.55136 -4.67843 31006 ft 422 kts 236°
2026-05-06 07:37 40.51626 -4.74033 31017 ft 422 kts 236°
2026-05-06 07:38 40.48110 -4.80210 31016 ft 421 kts 236°
2026-05-06 07:38 40.44591 -4.86379 31008 ft 421 kts 236°
2026-05-06 07:39 40.41065 -4.92539 31010 ft 421 kts 236°
2026-05-06 07:39 40.37533 -4.98697 31009 ft 423 kts 236°
2026-05-06 07:40 40.33987 -5.04868 31000 ft 423 kts 235°
2026-05-06 07:40 40.30438 -5.11027 31010 ft 423 kts 235°
2026-05-06 07:41 40.26909 -5.17140 31009 ft 423 kts 235°
2026-05-06 07:41 40.23359 -5.23279 31007 ft 422 kts 235°
2026-05-06 07:42 40.19804 -5.29414 31006 ft 423 kts 235°
2026-05-06 07:42 40.16246 -5.35542 31011 ft 424 kts 235°
2026-05-06 07:43 40.12670 -5.41690 30984 ft 424 kts 235°
2026-05-06 07:43 40.09100 -5.47818 31005 ft 423 kts 235°
2026-05-06 07:44 40.05525 -5.53937 31008 ft 423 kts 235°
2026-05-06 07:44 40.01954 -5.60040 31009 ft 423 kts 235°
2026-05-06 07:45 39.98379 -5.66139 31007 ft 423 kts 235°
2026-05-06 07:45 39.94797 -5.72237 31007 ft 423 kts 235°
2026-05-06 07:46 39.91198 -5.78352 31008 ft 425 kts 235°
2026-05-06 07:46 39.87592 -5.84468 30996 ft 425 kts 234°
2026-05-06 07:47 39.83990 -5.90564 31007 ft 424 kts 234°
2026-05-06 07:47 39.80413 -5.96606 31010 ft 424 kts 234°
2026-05-06 07:48 39.76807 -6.02686 31014 ft 424 kts 234°
2026-05-06 07:48 39.73200 -6.08755 31014 ft 424 kts 234°
2026-05-06 07:49 39.69564 -6.14863 31016 ft 426 kts 234°
2026-05-06 07:49 39.65927 -6.20958 31014 ft 426 kts 234°
2026-05-06 07:50 39.62295 -6.27036 31002 ft 425 kts 234°
2026-05-06 07:50 39.58673 -6.33084 31011 ft 424 kts 234°
2026-05-06 07:51 39.55044 -6.39129 31015 ft 424 kts 234°
2026-05-06 07:51 39.51442 -6.45180 31013 ft 423 kts 236°
2026-05-06 07:52 39.48204 -6.51555 31015 ft 424 kts 241°
2026-05-06 07:52 39.45481 -6.58325 31020 ft 423 kts 246°
2026-05-06 07:53 39.43304 -6.65413 31019 ft 423 kts 252°
2026-05-06 07:53 39.41217 -6.72477 31023 ft 423 kts 248°
2026-05-06 07:54 39.38637 -6.79404 31024 ft 424 kts 245°
2026-05-06 07:54 39.36007 -6.86217 31014 ft 423 kts 245°
2026-05-06 07:55 39.33370 -6.93022 31019 ft 423 kts 245°
2026-05-06 07:55 39.30741 -6.99789 31030 ft 423 kts 245°
2026-05-06 07:56 39.28094 -7.06584 31031 ft 423 kts 244°
2026-05-06 07:56 39.25398 -7.13345 31029 ft 424 kts 242°
2026-05-06 07:57 39.22084 -7.19670 31031 ft 426 kts 233°
2026-05-06 07:57 39.18044 -7.25301 31027 ft 431 kts 225°
2026-05-06 07:58 39.13305 -7.30160 31036 ft 434 kts 218°
2026-05-06 07:58 39.08406 -7.34590 31024 ft 431 kts 218°
2026-05-06 07:59 39.03494 -7.39018 31038 ft 431 kts 218°
2026-05-06 07:59 38.98598 -7.43433 31025 ft 431 kts 218°
2026-05-06 08:00 38.93680 -7.47862 31028 ft 431 kts 218°
2026-05-06 08:00 38.88762 -7.52285 31044 ft 431 kts 218°
2026-05-06 08:01 38.83866 -7.56680 31032 ft 428 kts 218°
2026-05-06 08:01 38.78980 -7.61061 31043 ft 428 kts 218°
2026-05-06 08:02 38.74903 -7.64712 31042 ft 430 kts 218°
2026-05-06 08:02 38.74078 -7.65450 31040 ft 430 kts 218°